NDF2MT LGKO-EDDF

Flight info

Callsign NDF2MT
Flight time 2h 48m
Altitude 34000
Route LARKI1F LARKI UL609 MES DCT FSK UL608 DISOR DCT LONTA UL608 DOLEV DCT BEDOX DCT SIMBA DCT AKINI T161 DEBHI DEBHI1C
Aircraft A321/M-SDE3FGHIRWY/LB1

Departure

Time 2026-05-08 15:44
Airport Kos International Airport "Ippokratis" (LGKO)

Arrival

Time 2026-05-08 18:33
Airport Frankfurt Main Airport (EDDF)
Time Latitude Longitude Altitude Speed Heading
2026-05-08 15:26 36.80078 27.08982 410 ft 0 kts 58°
2026-05-08 15:36 36.80073 27.08972 410 ft 4 kts 56°
2026-05-08 15:36 36.80057 27.08945 408 ft 4 kts 45°
2026-05-08 15:37 36.80036 27.08924 414 ft 4 kts 23°
2026-05-08 15:37 36.80014 27.08921 416 ft 2 kts 329°
2026-05-08 15:37 36.80013 27.08922 415 ft 1 kts 327°
2026-05-08 15:40 36.80021 27.08915 411 ft 5 kts 327°
2026-05-08 15:40 36.80070 27.08876 416 ft 9 kts 328°
2026-05-08 15:40 36.80119 27.08839 414 ft 8 kts 328°
2026-05-08 15:40 36.80161 27.08806 414 ft 6 kts 328°
2026-05-08 15:41 36.80190 27.08783 415 ft 2 kts 327°
2026-05-08 15:41 36.80205 27.08771 417 ft 7 kts 328°
2026-05-08 15:41 36.80248 27.08738 418 ft 8 kts 327°
2026-05-08 15:41 36.80287 27.08707 417 ft 6 kts 327°
2026-05-08 15:42 36.80322 27.08662 415 ft 11 kts 298°
2026-05-08 15:42 36.80346 27.08557 421 ft 13 kts 285°
2026-05-08 15:42 36.80360 27.08479 421 ft 0 kts 279°
2026-05-08 15:42 36.80359 27.08459 421 ft 2 kts 256°
2026-05-08 15:43 36.80352 27.08435 421 ft 2 kts 246°
2026-05-08 15:43 36.80329 27.08436 420 ft 4 kts 148°
2026-05-08 15:43 36.80328 27.08437 420 ft 2 kts 147°
2026-05-08 15:43 36.80091 27.08623 414 ft 78 kts 148°
2026-05-08 15:44 36.79458 27.09113 417 ft 136 kts 150°
2026-05-08 15:44 36.78565 27.09823 682 ft 155 kts 147°
2026-05-08 15:44 36.77651 27.10567 1257 ft 161 kts 147°
2026-05-08 15:44 36.76697 27.11334 1831 ft 164 kts 149°
2026-05-08 15:45 36.75741 27.12083 2406 ft 160 kts 147°
2026-05-08 15:45 36.74875 27.12962 2856 ft 162 kts 133°
2026-05-08 15:45 36.74272 27.14141 3311 ft 162 kts 103°
2026-05-08 15:45 36.74387 27.15501 3768 ft 161 kts 70°
2026-05-08 15:46 36.74844 27.16777 4130 ft 166 kts 63°
2026-05-08 15:46 36.75412 27.18135 4328 ft 184 kts 62°
2026-05-08 15:46 36.76040 27.19599 4478 ft 201 kts 62°
2026-05-08 15:46 36.76725 27.21194 4608 ft 216 kts 62°
2026-05-08 15:47 36.77453 27.22898 4830 ft 226 kts 61°
2026-05-08 15:47 36.78268 27.24599 5200 ft 230 kts 57°
2026-05-08 15:47 36.79147 27.26268 5783 ft 230 kts 56°
2026-05-08 15:47 36.80222 27.27716 6306 ft 232 kts 30°
2026-05-08 15:48 36.83307 27.27745 7332 ft 233 kts 328°
2026-05-08 15:48 36.84657 27.26611 7862 ft 235 kts 325°
2026-05-08 15:48 36.86004 27.25478 8368 ft 237 kts 326°
2026-05-08 15:49 36.87379 27.24329 8880 ft 237 kts 326°
2026-05-08 15:49 36.88753 27.23184 9216 ft 238 kts 326°
2026-05-08 15:49 36.90141 27.22024 9499 ft 240 kts 326°
2026-05-08 15:49 36.91541 27.20857 9786 ft 241 kts 326°
2026-05-08 15:50 36.92943 27.19685 10078 ft 242 kts 326°
2026-05-08 15:50 36.94219 27.18345 10349 ft 243 kts 310°
2026-05-08 15:50 36.95105 27.16549 10621 ft 244 kts 292°
2026-05-08 15:50 36.95510 27.14479 10899 ft 245 kts 278°
2026-05-08 15:51 36.95965 27.12408 11066 ft 253 kts 297°
2026-05-08 15:51 36.97131 27.10728 11172 ft 269 kts 326°
2026-05-08 15:51 36.98812 27.09614 11503 ft 276 kts 333°
2026-05-08 15:51 37.00600 27.08505 11663 ft 297 kts 333°
2026-05-08 15:52 37.02521 27.07308 11803 ft 319 kts 333°
2026-05-08 15:52 37.04576 27.06025 11935 ft 339 kts 333°
2026-05-08 15:52 37.06747 27.04670 12062 ft 359 kts 333°
2026-05-08 15:52 37.09042 27.03240 12192 ft 377 kts 333°
2026-05-08 15:53 37.11398 27.01770 12540 ft 386 kts 333°
2026-05-08 15:53 37.13822 27.00253 13061 ft 390 kts 333°
2026-05-08 15:53 37.16264 26.98722 13603 ft 393 kts 333°
2026-05-08 15:53 37.18731 26.97172 14131 ft 396 kts 333°
2026-05-08 15:54 37.21206 26.95616 14647 ft 399 kts 333°
2026-05-08 15:54 37.23691 26.94055 15136 ft 402 kts 333°
2026-05-08 15:54 37.26171 26.92496 15629 ft 405 kts 333°
2026-05-08 15:54 37.28701 26.90902 16107 ft 407 kts 333°
2026-05-08 15:55 37.31257 26.89287 16581 ft 410 kts 333°
2026-05-08 15:55 37.36361 26.86058 17492 ft 416 kts 333°
2026-05-08 15:55 37.38942 26.84382 17920 ft 418 kts 329°
2026-05-08 15:56 37.41343 26.82280 18338 ft 421 kts 320°
2026-05-08 15:56 37.43576 26.79867 18775 ft 423 kts 319°
2026-05-08 15:56 37.45825 26.77430 19200 ft 426 kts 319°
2026-05-08 15:56 37.48048 26.75029 19600 ft 428 kts 319°
2026-05-08 15:57 37.50330 26.72573 20006 ft 431 kts 319°
2026-05-08 15:57 37.52600 26.70132 20405 ft 433 kts 319°
2026-05-08 15:57 37.54922 26.67632 20795 ft 436 kts 319°
2026-05-08 15:57 37.57209 26.65161 21152 ft 438 kts 319°
2026-05-08 15:58 37.59533 26.62641 21540 ft 441 kts 319°
2026-05-08 15:58 37.61870 26.60100 21907 ft 443 kts 319°
2026-05-08 15:58 37.64214 26.57545 22269 ft 445 kts 319°
2026-05-08 15:58 37.66534 26.55012 22616 ft 447 kts 319°
2026-05-08 15:59 37.68899 26.52432 22962 ft 450 kts 319°
2026-05-08 15:59 37.71281 26.49839 23303 ft 452 kts 319°
2026-05-08 15:59 37.73680 26.47228 23636 ft 454 kts 319°
2026-05-08 15:59 37.76054 26.44642 23939 ft 456 kts 319°
2026-05-08 16:00 37.78471 26.42013 24262 ft 458 kts 319°
2026-05-08 16:00 37.80898 26.39373 24561 ft 461 kts 319°
2026-05-08 16:00 37.83337 26.36720 24866 ft 463 kts 319°
2026-05-08 16:00 37.85783 26.34057 25166 ft 465 kts 319°
2026-05-08 16:01 37.88244 26.31372 25464 ft 467 kts 319°
2026-05-08 16:01 37.90682 26.28698 25754 ft 469 kts 319°
2026-05-08 16:01 37.93150 26.25985 26029 ft 470 kts 319°
2026-05-08 16:01 37.95641 26.23247 26348 ft 471 kts 319°
2026-05-08 16:02 37.98093 26.20549 26714 ft 470 kts 319°
2026-05-08 16:02 38.00563 26.17828 27078 ft 469 kts 319°
2026-05-08 16:02 38.03039 26.15099 27428 ft 468 kts 319°
2026-05-08 16:02 38.05475 26.12412 27779 ft 468 kts 319°
2026-05-08 16:03 38.07937 26.09697 28120 ft 467 kts 319°
2026-05-08 16:03 38.10394 26.06987 28454 ft 466 kts 319°
2026-05-08 16:03 38.12845 26.04277 28772 ft 466 kts 319°
2026-05-08 16:03 38.15253 26.01607 29100 ft 465 kts 319°
2026-05-08 16:04 38.17696 25.98894 29413 ft 465 kts 319°
2026-05-08 16:04 38.20135 25.96185 29701 ft 465 kts 319°
2026-05-08 16:04 38.22547 25.93504 29998 ft 464 kts 319°
2026-05-08 16:04 38.24983 25.90798 30303 ft 463 kts 319°
2026-05-08 16:05 38.27462 25.88149 30595 ft 463 kts 321°
2026-05-08 16:05 38.29994 25.85629 30923 ft 462 kts 322°
2026-05-08 16:05 38.32541 25.83207 31233 ft 461 kts 323°
2026-05-08 16:05 38.35120 25.80797 31534 ft 460 kts 323°
2026-05-08 16:06 38.37705 25.78369 31834 ft 459 kts 323°
2026-05-08 16:06 38.39405 25.76754 32028 ft 459 kts 323°
2026-05-08 16:06 38.41961 25.74294 32313 ft 459 kts 322°
2026-05-08 16:06 38.44507 25.71810 32601 ft 458 kts 322°
2026-05-08 16:07 38.47035 25.69323 32882 ft 457 kts 322°
2026-05-08 16:07 38.49525 25.66866 33161 ft 457 kts 322°
2026-05-08 16:07 38.52060 25.64367 33433 ft 456 kts 322°
2026-05-08 16:07 38.54578 25.61891 33701 ft 456 kts 322°
2026-05-08 16:08 38.57064 25.59450 33929 ft 456 kts 322°
2026-05-08 16:08 38.59588 25.56974 34002 ft 456 kts 322°
2026-05-08 16:08 38.64621 25.52036 34009 ft 454 kts 322°
2026-05-08 16:09 38.69608 25.47126 34009 ft 454 kts 322°
2026-05-08 16:09 38.74621 25.42179 34009 ft 454 kts 322°
2026-05-08 16:10 38.79627 25.37221 34009 ft 455 kts 322°
2026-05-08 16:10 38.84648 25.32238 34010 ft 461 kts 322°
2026-05-08 16:11 38.89739 25.27183 34009 ft 462 kts 322°
2026-05-08 16:11 38.94839 25.22114 34009 ft 462 kts 322°
2026-05-08 16:12 38.99905 25.17079 34007 ft 462 kts 322°
2026-05-08 16:12 39.05007 25.11991 34008 ft 462 kts 322°
2026-05-08 16:13 39.10065 25.06921 34009 ft 462 kts 322°
2026-05-08 16:13 39.15154 25.01819 34009 ft 462 kts 322°
2026-05-08 16:14 39.20204 24.96753 34010 ft 462 kts 322°
2026-05-08 16:14 39.25284 24.91652 34009 ft 462 kts 322°
2026-05-08 16:15 39.30364 24.86543 34009 ft 462 kts 322°
2026-05-08 16:15 39.35409 24.81457 34009 ft 462 kts 322°
2026-05-08 16:16 39.40484 24.76324 34007 ft 462 kts 321°
2026-05-08 16:16 39.45517 24.71219 34009 ft 462 kts 321°
2026-05-08 16:17 39.50590 24.66068 34011 ft 462 kts 322°
2026-05-08 16:17 39.55660 24.60917 34011 ft 462 kts 321°
2026-05-08 16:18 39.60694 24.55790 34009 ft 462 kts 321°
2026-05-08 16:18 39.65752 24.50627 34014 ft 462 kts 321°
2026-05-08 16:19 39.70813 24.45449 34013 ft 462 kts 321°
2026-05-08 16:19 39.75840 24.40287 34015 ft 462 kts 321°
2026-05-08 16:20 39.80899 24.35089 34016 ft 462 kts 321°
2026-05-08 16:20 39.85956 24.29891 34011 ft 462 kts 321°
2026-05-08 16:21 39.90972 24.24727 34012 ft 462 kts 321°
2026-05-08 16:21 39.96026 24.19501 34021 ft 463 kts 321°
2026-05-08 16:22 40.01081 24.14274 34018 ft 463 kts 321°
2026-05-08 16:22 40.06099 24.09084 34024 ft 463 kts 321°
2026-05-08 16:23 40.11146 24.03827 34018 ft 462 kts 321°
2026-05-08 16:23 40.16148 23.98607 34013 ft 462 kts 321°
2026-05-08 16:24 40.21194 23.93339 34016 ft 462 kts 321°
2026-05-08 16:24 40.26204 23.88116 34019 ft 462 kts 321°
2026-05-08 16:25 40.31253 23.82844 34018 ft 463 kts 321°
2026-05-08 16:25 40.36282 23.77568 34012 ft 463 kts 321°
2026-05-08 16:26 40.41313 23.72272 34011 ft 463 kts 321°
2026-05-08 16:26 40.46317 23.67006 34005 ft 464 kts 321°
2026-05-08 16:27 40.51371 23.61683 33998 ft 465 kts 321°
2026-05-08 16:27 40.56392 23.56379 34003 ft 465 kts 321°
2026-05-08 16:28 40.61432 23.51018 34009 ft 465 kts 321°
2026-05-08 16:28 40.66477 23.45665 34015 ft 464 kts 321°
2026-05-08 16:29 40.71488 23.40343 34027 ft 464 kts 321°
2026-05-08 16:29 40.76520 23.34985 34017 ft 464 kts 321°
2026-05-08 16:30 40.81555 23.29610 34015 ft 465 kts 321°
2026-05-08 16:30 40.86569 23.24242 34007 ft 466 kts 321°
2026-05-08 16:31 40.91618 23.18815 34008 ft 467 kts 321°
2026-05-08 16:31 40.96662 23.13401 34013 ft 467 kts 321°
2026-05-08 16:32 41.01679 23.07995 34010 ft 467 kts 321°
2026-05-08 16:32 41.06726 23.02553 34019 ft 467 kts 320°
2026-05-08 16:33 41.11444 22.96711 34024 ft 465 kts 310°
2026-05-08 16:33 41.15635 22.90146 34017 ft 465 kts 310°
2026-05-08 16:34 41.19796 22.83598 34027 ft 465 kts 310°
2026-05-08 16:34 41.23973 22.77009 34028 ft 465 kts 310°
2026-05-08 16:35 41.28228 22.70526 34018 ft 465 kts 312°
2026-05-08 16:35 41.32599 22.64237 34018 ft 465 kts 313°
2026-05-08 16:36 41.36994 22.57913 34013 ft 465 kts 312°
2026-05-08 16:36 41.41349 22.51518 34007 ft 465 kts 312°
2026-05-08 16:37 41.45669 22.45137 34010 ft 466 kts 312°
2026-05-08 16:37 41.50032 22.38706 34009 ft 467 kts 312°
2026-05-08 16:38 41.54368 22.32303 34011 ft 466 kts 312°
2026-05-08 16:38 41.58721 22.25858 34015 ft 466 kts 311°
2026-05-08 16:39 41.63039 22.19434 34014 ft 466 kts 311°
2026-05-08 16:39 41.67379 22.12982 34023 ft 466 kts 311°
2026-05-08 16:40 41.71706 22.06532 34018 ft 465 kts 311°
2026-05-08 16:40 41.76001 22.00105 34019 ft 465 kts 311°
2026-05-08 16:41 41.80319 21.93632 34021 ft 464 kts 311°
2026-05-08 16:42 41.86755 21.83969 34010 ft 464 kts 311°
2026-05-08 16:42 41.91066 21.77480 34004 ft 464 kts 311°
2026-05-08 16:43 41.95350 21.71011 34003 ft 464 kts 311°
2026-05-08 16:43 41.99621 21.64547 34006 ft 464 kts 311°
2026-05-08 16:44 42.03920 21.58040 34006 ft 464 kts 311°
2026-05-08 16:44 42.08209 21.51525 33998 ft 465 kts 311°
2026-05-08 16:45 42.12478 21.45012 33993 ft 466 kts 311°
2026-05-08 16:45 42.16748 21.38483 33993 ft 466 kts 311°
2026-05-08 16:46 42.20990 21.31827 33993 ft 468 kts 310°
2026-05-08 16:46 42.25189 21.25110 34001 ft 468 kts 310°
2026-05-08 16:47 42.29401 21.18388 34012 ft 467 kts 310°
2026-05-08 16:47 42.33574 21.11728 34010 ft 467 kts 310°
2026-05-08 16:48 42.37774 21.05020 34007 ft 467 kts 310°
2026-05-08 16:48 42.41951 20.98338 34012 ft 467 kts 310°
2026-05-08 16:49 42.46146 20.91609 34009 ft 467 kts 310°
2026-05-08 16:49 42.49640 20.85989 34008 ft 468 kts 310°
2026-05-08 16:50 42.53839 20.79217 34012 ft 467 kts 310°
2026-05-08 16:50 42.58003 20.72494 34019 ft 467 kts 310°
2026-05-08 16:51 42.62182 20.65732 34014 ft 466 kts 310°
2026-05-08 16:51 42.66331 20.58995 34019 ft 466 kts 309°
2026-05-08 16:52 42.70485 20.52231 34018 ft 465 kts 309°
2026-05-08 16:52 42.74650 20.45459 34020 ft 465 kts 309°
2026-05-08 16:53 42.80843 20.35329 33994 ft 466 kts 309°
2026-05-08 16:53 42.85282 20.28864 33981 ft 468 kts 319°
2026-05-08 16:54 42.90167 20.23008 33991 ft 469 kts 318°
2026-05-08 16:54 42.95063 20.17095 33995 ft 470 kts 318°
2026-05-08 16:55 42.99934 20.11188 33995 ft 470 kts 318°
2026-05-08 16:55 43.04832 20.05241 33998 ft 471 kts 318°
2026-05-08 16:56 43.09744 19.99262 34006 ft 471 kts 318°
2026-05-08 16:56 43.14617 19.93324 34010 ft 471 kts 318°
2026-05-08 16:57 43.19528 19.87339 34008 ft 471 kts 318°
2026-05-08 16:57 43.24413 19.81366 34009 ft 471 kts 318°
2026-05-08 16:58 43.29315 19.75348 34009 ft 472 kts 318°
2026-05-08 16:58 43.34168 19.69372 34021 ft 471 kts 318°
2026-05-08 16:59 43.39059 19.63360 34037 ft 470 kts 318°
2026-05-08 16:59 43.43932 19.57351 34027 ft 469 kts 318°
2026-05-08 17:00 43.48770 19.51352 34020 ft 469 kts 318°
2026-05-08 17:00 43.53603 19.45367 34023 ft 469 kts 317°
2026-05-08 17:01 43.58455 19.39331 34026 ft 468 kts 317°
2026-05-08 17:01 43.63296 19.33295 34028 ft 467 kts 317°
2026-05-08 17:02 43.68078 19.27322 34026 ft 467 kts 317°
2026-05-08 17:02 43.72903 19.21276 34016 ft 467 kts 317°
2026-05-08 17:03 43.77695 19.15267 34007 ft 467 kts 317°
2026-05-08 17:03 43.82523 19.09206 34001 ft 469 kts 317°
2026-05-08 17:04 43.87359 19.03114 34011 ft 469 kts 317°
2026-05-08 17:04 43.92192 18.97009 34012 ft 469 kts 317°
2026-05-08 17:05 43.96986 18.90938 34018 ft 469 kts 317°
2026-05-08 17:05 44.01814 18.84815 34016 ft 469 kts 317°
2026-05-08 17:06 44.06634 18.78676 34010 ft 469 kts 317°
2026-05-08 17:06 44.11458 18.72515 34009 ft 470 kts 317°
2026-05-08 17:07 44.16248 18.66397 34020 ft 469 kts 317°
2026-05-08 17:07 44.21062 18.60237 34022 ft 469 kts 317°
2026-05-08 17:08 44.25841 18.54102 34013 ft 469 kts 317°
2026-05-08 17:08 44.30652 18.47922 34014 ft 468 kts 317°
2026-05-08 17:09 44.35439 18.41753 34017 ft 468 kts 317°
2026-05-08 17:09 44.40186 18.35614 34025 ft 467 kts 317°
2026-05-08 17:10 44.44967 18.29409 34026 ft 466 kts 317°
2026-05-08 17:10 44.49706 18.23249 34023 ft 466 kts 317°
2026-05-08 17:11 44.54470 18.17058 34023 ft 466 kts 317°
2026-05-08 17:11 44.59189 18.10901 34024 ft 465 kts 317°
2026-05-08 17:12 44.63936 18.04707 34024 ft 465 kts 317°
2026-05-08 17:12 44.68675 17.98497 34026 ft 465 kts 316°
2026-05-08 17:13 44.73375 17.92312 34024 ft 464 kts 316°
2026-05-08 17:13 44.78096 17.86096 34015 ft 464 kts 316°
2026-05-08 17:14 44.82792 17.79899 34022 ft 464 kts 316°
2026-05-08 17:14 44.87496 17.73677 34015 ft 463 kts 316°
2026-05-08 17:15 44.92196 17.67450 34014 ft 463 kts 316°
2026-05-08 17:15 44.96867 17.61231 34013 ft 463 kts 316°
2026-05-08 17:16 45.01572 17.54956 34012 ft 463 kts 316°
2026-05-08 17:16 45.06241 17.48724 34017 ft 463 kts 316°
2026-05-08 17:17 45.10933 17.42442 34013 ft 463 kts 316°
2026-05-08 17:17 45.15593 17.36186 34012 ft 463 kts 316°
2026-05-08 17:18 45.20099 17.30119 34015 ft 463 kts 316°
2026-05-08 17:18 45.24770 17.23819 34017 ft 463 kts 316°
2026-05-08 17:19 45.29443 17.17497 34009 ft 463 kts 316°
2026-05-08 17:19 45.34092 17.11201 34010 ft 463 kts 316°
2026-05-08 17:20 45.38761 17.04859 34009 ft 463 kts 316°
2026-05-08 17:20 45.43402 16.98551 34010 ft 463 kts 316°
2026-05-08 17:21 45.48062 16.92193 34010 ft 463 kts 316°
2026-05-08 17:21 45.52718 16.85826 34008 ft 463 kts 316°
2026-05-08 17:22 45.57349 16.79480 34013 ft 463 kts 316°
2026-05-08 17:22 45.61994 16.73098 34011 ft 463 kts 316°
2026-05-08 17:23 45.66615 16.66726 34008 ft 464 kts 316°
2026-05-08 17:23 45.71262 16.60306 34006 ft 464 kts 316°
2026-05-08 17:24 45.75899 16.53882 34010 ft 463 kts 315°
2026-05-08 17:24 45.80537 16.47435 34020 ft 464 kts 315°
2026-05-08 17:25 45.85135 16.41035 34020 ft 464 kts 315°
2026-05-08 17:25 45.89781 16.34555 34024 ft 464 kts 315°
2026-05-08 17:26 45.94385 16.28127 34025 ft 463 kts 315°
2026-05-08 17:26 45.99012 16.21650 34025 ft 464 kts 315°
2026-05-08 17:27 46.03635 16.15160 34014 ft 464 kts 315°
2026-05-08 17:27 46.08229 16.08686 34020 ft 464 kts 315°
2026-05-08 17:28 46.12853 16.02161 34015 ft 464 kts 315°
2026-05-08 17:28 46.17457 15.95648 34012 ft 463 kts 315°
2026-05-08 17:29 46.22044 15.89140 34009 ft 464 kts 315°
2026-05-08 17:29 46.26642 15.82594 34010 ft 464 kts 315°
2026-05-08 17:30 46.31313 15.76122 34008 ft 464 kts 316°
2026-05-08 17:30 46.36022 15.69789 34007 ft 464 kts 317°
2026-05-08 17:31 46.40736 15.63433 34009 ft 464 kts 316°
2026-05-08 17:31 46.45440 15.57019 34004 ft 464 kts 316°
2026-05-08 17:32 46.50138 15.50546 33991 ft 465 kts 316°
2026-05-08 17:32 46.54823 15.44086 34001 ft 466 kts 316°
2026-05-08 17:33 46.59534 15.37604 34007 ft 465 kts 316°
2026-05-08 17:33 46.64226 15.31137 34003 ft 466 kts 316°
2026-05-08 17:34 46.68906 15.24667 34008 ft 466 kts 316°
2026-05-08 17:34 46.73616 15.18119 34009 ft 466 kts 316°
2026-05-08 17:35 46.78284 15.11618 34002 ft 466 kts 316°
2026-05-08 17:35 46.82194 15.06158 33994 ft 467 kts 316°
2026-05-08 17:36 46.86881 14.99605 33983 ft 469 kts 316°
2026-05-08 17:36 46.91601 14.92987 33993 ft 470 kts 316°
2026-05-08 17:37 46.96326 14.86336 34007 ft 470 kts 316°
2026-05-08 17:37 47.01017 14.79736 34007 ft 470 kts 316°
2026-05-08 17:38 47.05741 14.73080 34009 ft 470 kts 316°
2026-05-08 17:38 47.10422 14.66456 34014 ft 470 kts 316°
2026-05-08 17:39 47.15133 14.59756 34015 ft 470 kts 315°
2026-05-08 17:39 47.19834 14.53056 34015 ft 470 kts 316°
2026-05-08 17:40 47.24512 14.46387 34022 ft 470 kts 315°
2026-05-08 17:40 47.29207 14.39671 34012 ft 470 kts 315°
2026-05-08 17:41 47.33909 14.32922 34010 ft 470 kts 315°
2026-05-08 17:41 47.38571 14.26212 34007 ft 471 kts 315°
2026-05-08 17:42 47.43266 14.19435 34000 ft 472 kts 315°
2026-05-08 17:42 47.47970 14.12638 34007 ft 472 kts 315°
2026-05-08 17:43 47.52660 14.05838 34026 ft 470 kts 315°
2026-05-08 17:43 47.57298 13.99093 34022 ft 470 kts 315°
2026-05-08 17:44 47.61967 13.92289 34015 ft 470 kts 315°
2026-05-08 17:44 47.66608 13.85508 34013 ft 470 kts 315°
2026-05-08 17:45 47.71288 13.78657 33996 ft 471 kts 315°
2026-05-08 17:45 47.75931 13.71828 34009 ft 471 kts 315°
2026-05-08 17:46 47.80578 13.64969 34012 ft 470 kts 315°
2026-05-08 17:46 47.85236 13.58093 34009 ft 470 kts 315°
2026-05-08 17:47 47.89835 13.51275 34022 ft 469 kts 315°
2026-05-08 17:47 47.93674 13.45565 34028 ft 468 kts 315°
2026-05-08 17:48 47.99071 13.37548 34025 ft 467 kts 315°
2026-05-08 17:48 48.03645 13.30738 34027 ft 466 kts 315°
2026-05-08 17:49 48.08240 13.23863 34020 ft 466 kts 315°
2026-05-08 17:49 48.12828 13.16960 34017 ft 466 kts 314°
2026-05-08 17:50 48.17383 13.10096 34020 ft 466 kts 315°
2026-05-08 17:50 48.21961 13.03199 34022 ft 465 kts 314°
2026-05-08 17:51 48.26413 12.96170 34014 ft 465 kts 311°
2026-05-08 17:51 48.30637 12.88894 34013 ft 465 kts 310°
2026-05-08 17:52 48.34858 12.81524 34012 ft 465 kts 311°
2026-05-08 17:53 48.41279 12.70549 34012 ft 465 kts 311°
2026-05-08 17:53 48.45557 12.63278 34012 ft 465 kts 311°
2026-05-08 17:54 48.49845 12.55943 34013 ft 465 kts 311°
2026-05-08 17:54 48.54106 12.48611 34014 ft 465 kts 311°
2026-05-08 17:55 48.58359 12.41279 34011 ft 465 kts 311°
2026-05-08 17:55 48.62626 12.33900 34016 ft 465 kts 311°
2026-05-08 17:56 48.66883 12.26518 34015 ft 465 kts 311°
2026-05-08 17:56 48.71127 12.19136 34016 ft 465 kts 310°
2026-05-08 17:57 48.74573 12.10944 34012 ft 464 kts 292°
2026-05-08 17:57 48.76164 12.01521 34008 ft 463 kts 279°
2026-05-08 17:58 48.77201 11.91858 34007 ft 464 kts 279°
2026-05-08 17:58 48.78230 11.82291 34009 ft 464 kts 279°
2026-05-08 17:59 48.79259 11.72611 34011 ft 464 kts 279°
2026-05-08 17:59 48.80275 11.62924 34012 ft 464 kts 279°
2026-05-08 18:00 48.81271 11.53310 34011 ft 464 kts 279°
2026-05-08 18:00 48.82771 11.38772 34008 ft 464 kts 278°
2026-05-08 18:01 48.83841 11.29150 33997 ft 464 kts 284°
2026-05-08 18:01 48.84887 11.24507 33496 ft 465 kts 295°
2026-05-08 18:01 48.86478 11.20253 33237 ft 463 kts 305°
2026-05-08 18:02 48.88516 11.16452 32995 ft 465 kts 314°
2026-05-08 18:02 48.90079 11.14183 32831 ft 466 kts 317°
2026-05-08 18:02 48.93257 11.09744 32501 ft 468 kts 317°
2026-05-08 18:02 48.95656 11.06379 32246 ft 468 kts 317°
2026-05-08 18:03 48.98065 11.02999 31996 ft 469 kts 317°
2026-05-08 18:03 49.00462 10.99641 31746 ft 469 kts 317°
2026-05-08 18:03 49.02868 10.96268 31496 ft 470 kts 317°
2026-05-08 18:03 49.05274 10.92891 31246 ft 470 kts 317°
2026-05-08 18:04 49.07675 10.89508 30999 ft 470 kts 317°
2026-05-08 18:04 49.10052 10.86152 30749 ft 471 kts 317°
2026-05-08 18:04 49.12456 10.82756 30497 ft 471 kts 317°
2026-05-08 18:04 49.14873 10.79334 30237 ft 472 kts 317°
2026-05-08 18:05 49.17289 10.75906 29996 ft 472 kts 317°
2026-05-08 18:05 49.19693 10.72486 29744 ft 473 kts 316°
2026-05-08 18:05 49.22038 10.69023 29499 ft 473 kts 315°
2026-05-08 18:05 49.24348 10.65431 29245 ft 474 kts 314°
2026-05-08 18:06 49.26631 10.61773 28975 ft 475 kts 313°
2026-05-08 18:06 49.28912 10.58083 27850 ft 480 kts 313°
2026-05-08 18:06 49.31216 10.54358 26553 ft 475 kts 313°
2026-05-08 18:06 49.33508 10.50676 25294 ft 477 kts 314°
2026-05-08 18:07 49.35752 10.47007 24536 ft 477 kts 310°
2026-05-08 18:07 49.37738 10.42955 24213 ft 469 kts 305°
2026-05-08 18:07 49.39610 10.38874 24022 ft 461 kts 305°
2026-05-08 18:07 49.41481 10.34802 24016 ft 471 kts 305°
2026-05-08 18:08 49.43386 10.30642 24019 ft 479 kts 305°
2026-05-08 18:08 49.45280 10.26488 24019 ft 482 kts 305°
2026-05-08 18:08 49.47206 10.22252 24019 ft 482 kts 304°
2026-05-08 18:08 49.49129 10.18018 24019 ft 482 kts 304°
2026-05-08 18:09 49.51047 10.13782 24019 ft 482 kts 304°
2026-05-08 18:09 49.52963 10.09538 24019 ft 482 kts 304°
2026-05-08 18:09 49.54855 10.05341 24019 ft 482 kts 304°
2026-05-08 18:09 49.56762 10.01106 24019 ft 482 kts 304°
2026-05-08 18:10 49.58672 9.96841 24019 ft 482 kts 304°
2026-05-08 18:10 49.60564 9.92577 24019 ft 482 kts 304°
2026-05-08 18:10 49.62448 9.88328 23944 ft 477 kts 304°
2026-05-08 18:10 49.64320 9.84100 23385 ft 471 kts 304°
2026-05-08 18:11 49.66135 9.80021 22248 ft 462 kts 304°
2026-05-08 18:11 49.67945 9.75983 20501 ft 453 kts 304°
2026-05-08 18:11 49.69727 9.72036 19448 ft 439 kts 304°
2026-05-08 18:11 49.71451 9.68222 18997 ft 428 kts 304°
2026-05-08 18:12 49.73148 9.64457 18273 ft 425 kts 304°
2026-05-08 18:12 49.74826 9.60715 17642 ft 424 kts 304°
2026-05-08 18:12 49.76514 9.56923 17153 ft 430 kts 304°
2026-05-08 18:12 49.78203 9.53101 16584 ft 428 kts 304°
2026-05-08 18:13 49.79808 9.49450 16072 ft 426 kts 304°
2026-05-08 18:13 49.81472 9.45657 15580 ft 423 kts 304°
2026-05-08 18:13 49.83104 9.41938 15107 ft 420 kts 304°
2026-05-08 18:13 49.84745 9.38198 14643 ft 418 kts 303°
2026-05-08 18:14 49.86162 9.34304 14154 ft 414 kts 294°
2026-05-08 18:14 49.87137 9.30116 13680 ft 411 kts 286°
2026-05-08 18:14 49.87937 9.25909 13200 ft 401 kts 286°
2026-05-08 18:14 49.88727 9.21779 12722 ft 398 kts 286°
2026-05-08 18:15 49.89505 9.17716 12249 ft 397 kts 286°
2026-05-08 18:15 49.90287 9.13622 11777 ft 394 kts 286°
2026-05-08 18:15 49.91058 9.09559 11302 ft 391 kts 286°
2026-05-08 18:15 49.91812 9.05575 10811 ft 372 kts 286°
2026-05-08 18:16 49.92515 9.01861 10337 ft 344 kts 286°
2026-05-08 18:16 49.93174 8.98418 9858 ft 321 kts 286°
2026-05-08 18:16 49.93781 8.95258 9398 ft 306 kts 286°
2026-05-08 18:16 49.94382 8.92120 8921 ft 301 kts 286°
2026-05-08 18:17 49.94972 8.89019 8443 ft 298 kts 286°
2026-05-08 18:17 49.95556 8.85942 8069 ft 295 kts 286°
2026-05-08 18:17 49.96133 8.82891 7999 ft 295 kts 286°
2026-05-08 18:17 49.96717 8.79806 8009 ft 298 kts 286°
2026-05-08 18:18 49.97299 8.76724 8008 ft 296 kts 286°
2026-05-08 18:18 49.97786 8.73623 8007 ft 296 kts 277°
2026-05-08 18:18 49.97773 8.70496 8005 ft 283 kts 261°
2026-05-08 18:18 49.97269 8.67602 8008 ft 280 kts 249°
2026-05-08 18:19 49.96582 8.64769 8009 ft 279 kts 249°
2026-05-08 18:19 49.95901 8.61940 8009 ft 279 kts 250°
2026-05-08 18:19 49.95451 8.60065 8009 ft 279 kts 250°
2026-05-08 18:19 49.94539 8.56282 8009 ft 279 kts 249°
2026-05-08 18:20 49.93866 8.53496 8009 ft 279 kts 250°
2026-05-08 18:20 49.93187 8.50680 8009 ft 279 kts 250°
2026-05-08 18:20 49.92506 8.47858 8009 ft 279 kts 250°
2026-05-08 18:20 49.91837 8.45087 8002 ft 267 kts 249°
2026-05-08 18:21 49.91402 8.43287 7728 ft 259 kts 249°
2026-05-08 18:21 49.90791 8.40762 7310 ft 248 kts 249°
2026-05-08 18:21 49.90193 8.38287 6885 ft 243 kts 250°
2026-05-08 18:21 49.89603 8.35842 6453 ft 241 kts 250°
2026-05-08 18:22 49.89015 8.33414 6034 ft 239 kts 249°
2026-05-08 18:22 49.88429 8.31005 5611 ft 238 kts 249°
2026-05-08 18:22 49.87846 8.28606 5182 ft 236 kts 249°
2026-05-08 18:22 49.87268 8.26231 4756 ft 235 kts 249°
2026-05-08 18:23 49.86692 8.23868 4321 ft 233 kts 249°
2026-05-08 18:23 49.86122 8.21522 3971 ft 230 kts 249°
2026-05-08 18:23 49.85552 8.19177 3928 ft 232 kts 249°
2026-05-08 18:23 49.84990 8.16877 3932 ft 232 kts 249°
2026-05-08 18:24 49.84421 8.14540 3934 ft 232 kts 249°
2026-05-08 18:24 49.83850 8.12186 3935 ft 232 kts 250°
2026-05-08 18:24 49.83284 8.09851 3935 ft 232 kts 250°
2026-05-08 18:24 49.83066 8.07394 3931 ft 231 kts 280°
2026-05-08 18:25 49.83719 8.05166 3934 ft 231 kts 312°
2026-05-08 18:25 49.85052 8.03797 3939 ft 232 kts 339°
2026-05-08 18:25 49.86588 8.03093 3932 ft 233 kts 354°
2026-05-08 18:25 49.88122 8.03445 3933 ft 233 kts 26°
2026-05-08 18:26 49.89450 8.04916 3937 ft 235 kts 41°
2026-05-08 18:26 49.90647 8.06635 3935 ft 235 kts 43°
2026-05-08 18:26 49.91785 8.08469 3929 ft 235 kts 57°
2026-05-08 18:26 49.92474 8.10774 3935 ft 235 kts 70°
2026-05-08 18:27 49.93027 8.13167 3935 ft 236 kts 70°
2026-05-08 18:27 49.93402 8.14748 3935 ft 236 kts 69°
2026-05-08 18:27 49.94178 8.17944 3935 ft 236 kts 69°
2026-05-08 18:27 49.94749 8.20287 3935 ft 236 kts 69°
2026-05-08 18:28 49.95330 8.22674 3935 ft 236 kts 69°
2026-05-08 18:28 49.95902 8.25029 3943 ft 226 kts 69°
2026-05-08 18:28 49.96435 8.27221 3790 ft 207 kts 69°
2026-05-08 18:28 49.96920 8.29224 3556 ft 191 kts 69°
2026-05-08 18:29 49.97380 8.31121 3311 ft 184 kts 69°
2026-05-08 18:29 49.97821 8.32943 3084 ft 181 kts 69°
2026-05-08 18:29 49.98262 8.34763 2836 ft 180 kts 69°
2026-05-08 18:29 49.98703 8.36589 2605 ft 179 kts 69°
2026-05-08 18:30 49.99140 8.38399 2362 ft 178 kts 69°
2026-05-08 18:30 49.99573 8.40195 2130 ft 176 kts 69°
2026-05-08 18:30 49.99993 8.41935 1882 ft 169 kts 69°
2026-05-08 18:30 50.00388 8.43573 1694 ft 155 kts 69°
2026-05-08 18:31 50.00756 8.45102 1470 ft 149 kts 69°
2026-05-08 18:31 50.01111 8.46578 1289 ft 146 kts 69°
2026-05-08 18:31 50.01465 8.48052 1091 ft 145 kts 69°
2026-05-08 18:31 50.01817 8.49515 903 ft 144 kts 69°
2026-05-08 18:32 50.02165 8.50968 694 ft 144 kts 69°
2026-05-08 18:32 50.02524 8.52426 489 ft 143 kts 70°
2026-05-08 18:32 50.02862 8.53839 369 ft 142 kts 70°
2026-05-08 18:32 50.03161 8.55167 355 ft 102 kts 70°
2026-05-08 18:33 50.03319 8.55808 348 ft 43 kts 68°
2026-05-08 18:33 50.03459 8.56243 355 ft 46 kts 52°
2026-05-08 18:33 50.03636 8.56500 359 ft 29 kts 39°
2026-05-08 18:33 50.03754 8.56662 358 ft 19 kts 42°
2026-05-08 18:34 50.03815 8.56824 363 ft 17 kts 68°
2026-05-08 18:34 50.03854 8.56988 362 ft 16 kts 70°
2026-05-08 18:34 50.03889 8.57134 360 ft 15 kts 69°
2026-05-08 18:34 50.03944 8.57350 366 ft 27 kts 70°
2026-05-08 18:35 50.04015 8.57665 368 ft 28 kts 70°
2026-05-08 18:35 50.04079 8.57933 368 ft 23 kts 69°
2026-05-08 18:35 50.04145 8.58130 368 ft 18 kts 28°
2026-05-08 18:35 50.04238 8.58203 366 ft 12 kts 19°
2026-05-08 18:36 50.04282 8.58203 368 ft 0 kts 345°
2026-05-08 18:36 50.04287 8.58201 369 ft 5 kts 345°
2026-05-08 18:36 50.04385 8.58148 371 ft 19 kts 339°
2026-05-08 18:36 50.04475 8.58097 365 ft 10 kts 340°
2026-05-08 18:37 50.04489 8.58089 368 ft 0 kts 339°
2026-05-08 18:37 50.04526 8.58058 365 ft 13 kts 314°
2026-05-08 18:37 50.04521 8.57917 364 ft 13 kts 250°
2026-05-08 18:37 50.04489 8.57792 364 ft 12 kts 248°
2026-05-08 18:38 50.04459 8.57671 365 ft 12 kts 249°
2026-05-08 18:38 50.04431 8.57551 366 ft 13 kts 250°
2026-05-08 18:38 50.04398 8.57413 367 ft 14 kts 249°
2026-05-08 18:38 50.04366 8.57278 364 ft 13 kts 250°
2026-05-08 18:39 50.04334 8.57145 361 ft 13 kts 249°
2026-05-08 18:39 50.04306 8.57029 363 ft 6 kts 250°
2026-05-08 18:39 50.04302 8.57008 361 ft 0 kts 250°
2026-05-08 18:39 50.04290 8.56958 362 ft 11 kts 249°
2026-05-08 18:40 50.04276 8.56889 360 ft 6 kts 265°
2026-05-08 18:40 50.04317 8.56824 360 ft 13 kts 354°
2026-05-08 18:40 50.04363 8.56833 363 ft 0 kts 11°
2026-05-08 18:45 50.04410 8.56845 364 ft 12 kts
2026-05-08 18:45 50.04494 8.56870 359 ft 12 kts 12°
2026-05-08 18:46 50.04575 8.56899 363 ft 13 kts 13°
2026-05-08 18:46 50.04666 8.56943 363 ft 14 kts 23°
2026-05-08 18:46 50.04753 8.57004 363 ft 13 kts 22°
2026-05-08 18:46 50.04811 8.57045 358 ft 7 kts 24°
2026-05-08 18:47 50.04829 8.57058 363 ft 3 kts 25°
2026-05-08 18:47 50.04857 8.57079 357 ft 5 kts 24°
2026-05-08 18:47 50.04879 8.57097 361 ft 3 kts 36°
2026-05-08 18:47 50.04890 8.57118 365 ft 2 kts 60°
2026-05-08 18:48 50.04894 8.57134 365 ft 2 kts 68°
2026-05-08 18:48 50.04894 8.57146 360 ft 1 kts 96°
2026-05-08 18:48 50.04887 8.57150 363 ft 1 kts 154°
2026-05-08 18:48 50.04885 8.57151 363 ft 0 kts 158°
2026-05-08 18:49 50.04884 8.57152 363 ft 0 kts 158°
2026-05-08 18:49 50.04883 8.57152 363 ft 0 kts 159°